Stations météo

réclame
Mon MeteoGroup
Figari, France (7780): Température de l'air & dewpoint: 29.03.2020 23:00:00 - 04.04.2020 23:00:00 (CEST)Figari, France (7780): Température de l'air 5cm: 29.03.2020 23:00:00 - 04.04.2020 23:00:00 (CEST)Figari, France (7780): Vitesse du vent & gusts: 29.03.2020 23:00:00 - 04.04.2020 23:00:00 (CEST)Figari, France (7780): Direction du vent: 29.03.2020 23:00:00 - 04.04.2020 23:00:00 (CEST)Figari, France (7780): reduced air pressure: 29.03.2020 23:00:00 - 04.04.2020 23:00:00 (CEST)Figari, France (7780): visibility: 29.03.2020 23:00:00 - 04.04.2020 23:00:00 (CEST)Figari, France (7780): Quantités de précipitations: 29.03.2020 23:00:00 - 04.04.2020 23:00:00 (CEST)
Date & Time tt [°C] td [°C] tt 5cm [°C] ff [km/h] ff [knt] fx [km/h] fx [knt] dd ppp [hPa] vv [km] rr [mm]
04.04.2020 23:00:00 4,3 1,8 0,8 5 3 8 5 NE 1020,9 45 0,0
04.04.2020 22:00:00 6,0 2,1 2,3 6 3 10 6 NE 1020,5 51 0,0
04.04.2020 21:00:00 8,4 3,0 4,6 7 4 12 6 NNE 1019,9 58 0,0
04.04.2020 20:00:00 13,7 2,0 8,0 8 4 21 11 NW 1019,0 58 0,0
04.04.2020 19:00:00 17,4 2,5 12,7 10 6 27 15 SSW 1018,6 19 0,0
04.04.2020 18:00:00 19,2 -1,3 15,8 14 8 29 16 E 1018,2 30 0,0
04.04.2020 17:00:00 19,7 -1,5 18,3 13 7 44 24 ESE 1018,3 20 0,0
04.04.2020 16:00:00 20,2 -3,5 20,2 22 12 42 23 E 1018,3 39 0,0
04.04.2020 15:00:00 20,2 -0,5 21,8 22 12 56 30 E 1018,3 20 0,0
04.04.2020 14:00:00 19,9 -1,9 21,6 23 13 63 34 ENE 1018,4 42 0,0
04.04.2020 13:00:00 19,7 -1,5 21,0 26 14 50 27 ENE 1018,5 20 0,0
04.04.2020 12:00:00 19,3 -1,2 17,3 21 11 40 22 NE 1018,8 30 0,0
04.04.2020 11:00:00 18,4 0,5 14,3 13 7 29 16 ENE 1018,7 20 0,0
04.04.2020 10:00:00 14,6 7,6 8,5 4 2 8 4 SSW 1018,6 19 0,0
04.04.2020 09:00:00 8,4 6,7 -0,5 6 4 14 7 NNE 1018,2 47 0,0
04.04.2020 08:00:00 1,7 1,4 -1,6 3 2 9 5 NNW 1017,8 40 0,0
04.04.2020 07:00:00 -0,8 -1,2 -1,6 6 3 11 6 ENE 1017,1 25 0,0
04.04.2020 06:00:00 -0,6 -1,2 -1,4 4 2 11 6 NE 1016,6 25 0,0
04.04.2020 05:00:00 -0,2 -0,6 -0,9 2 1 9 5 NE 1016,4 39 0,0
04.04.2020 04:00:00 -0,1 -0,7 -1,0 5 3 9 5 NNE 1016,1 32 0,0
04.04.2020 03:00:00 0,5 -0,1 -0,9 4 2 7 4 N 1016,2 20 0,0
04.04.2020 02:00:00 1,5 0,9 -0,1 5 3 10 5 NNE 1016,1 17 0,0
04.04.2020 01:00:00 1,8 0,9 0,1 2 1 8 4 E 1015,9 15 0,0
04.04.2020 00:00:00 3,8 2,9 1,6 7 4 9 5 NNE 1015,6 15 0,0
03.04.2020 23:00:00 5,3 4,3 3,0 6 3 11 6 NE 1015,1 17 0,0
03.04.2020 22:00:00 7,6 6,1 4,7 4 2 9 5 N 1014,7 29 0,0
03.04.2020 21:00:00 9,6 7,5 7,9 6 3 9 5 NE 1014,2 41 0,0
03.04.2020 20:00:00 12,6 7,5 10,4 8 4 16 8 WSW 1013,5 53 0,0
03.04.2020 19:00:00 14,3 8,5 12,9 8 4 16 9 W 1013,1 59 0,0
03.04.2020 18:00:00 14,6 7,6 14,6 9 5 18 10 NE 1012,7 20 0,0
03.04.2020 17:00:00 14,2 8,2 14,6 11 6 24 13 ENE 1012,7 58 0,0
03.04.2020 16:00:00 14,6 8,5 13,4 10 5 21 11 E 1012,6 60 0,0
03.04.2020 15:00:00 13,6 8,4 12,4 9 5 22 12 E 1013,1 55 0,0
03.04.2020 14:00:00 13,7 8,3 12,6 10 5 26 14 E 1013,3 58 0,0
03.04.2020 13:00:00 13,9 7,4 13,1 13 7 24 13 NE 1013,2 60 0,0
03.04.2020 12:00:00 15,9 7,4 14,7 12 6 24 13 ENE 1012,7 20 0,0
03.04.2020 11:00:00 15,0 7,8 12,2 13 7 23 13 ESE 1012,7 59 0,0
03.04.2020 10:00:00 12,9 8,2 11,2 12 6 23 12 ENE 1012,7 56 -
03.04.2020 09:00:00 10,9 9,0 9,4 8 5 15 8 ENE 1012,4 41 0,0
03.04.2020 08:00:00 9,4 8,2 8,5 9 5 14 8 ENE 1012,3 21 0,0
03.04.2020 07:00:00 9,0 7,6 8,3 10 5 15 8 NE 1011,8 6 0,2
03.04.2020 06:00:00 8,6 7,4 8,2 4 2 6 3 NE 1011,5 38 0,0
03.04.2020 05:00:00 8,5 7,4 8,0 2 1 6 4 NE 1011,5 40 0,0
03.04.2020 04:00:00 8,6 7,2 7,9 3 2 5 3 NE 1011,6 39 0,0
03.04.2020 03:00:00 9,1 7,2 8,2 3 1 5 3 NNE 1011,9 32 0,0
03.04.2020 02:00:00 9,1 7,0 8,2 2 1 10 5 E 1012,3 38 0,0
03.04.2020 01:00:00 9,0 6,8 8,5 7 4 12 6 NE 1012,6 37 0,0
03.04.2020 00:00:00 10,0 5,6 7,9 8 4 14 8 ENE 1012,9 46 0,0
02.04.2020 23:00:00 9,5 5,5 7,1 10 5 15 8 ENE 1013,0 48 0,0
02.04.2020 22:00:00 9,4 5,4 7,5 9 5 15 8 ENE 1013,0 45 0,0
02.04.2020 21:00:00 10,2 5,8 9,0 9 5 15 8 NE 1012,8 47 0,0
02.04.2020 20:00:00 11,2 5,1 9,8 9 5 21 11 ENE 1012,5 58 0,0
02.04.2020 19:00:00 12,2 4,9 11,1 10 5 29 15 ENE 1012,4 60 0,0
02.04.2020 18:00:00 13,3 4,4 12,5 14 8 29 15 ENE 1012,2 48 0,0
02.04.2020 17:00:00 13,7 4,0 14,0 14 7 29 16 E 1012,4 54 0,0
02.04.2020 16:00:00 13,8 4,6 14,9 15 8 29 15 ENE 1012,7 54 0,0
02.04.2020 15:00:00 14,2 5,5 16,3 13 7 33 18 E 1013,4 40 0,0
02.04.2020 14:00:00 14,0 4,6 15,9 15 8 35 19 E 1014,0 52 0,0
02.04.2020 13:00:00 13,5 4,1 13,9 18 10 38 20 E 1014,4 42 0,0
02.04.2020 12:00:00 12,5 3,7 10,8 21 11 39 21 ENE 1014,2 20 0,0
02.04.2020 11:00:00 11,1 3,4 10,5 22 12 36 19 NE 1014,3 50 0,0
02.04.2020 10:00:00 10,8 2,6 8,4 17 9 35 19 NE 1014,6 55 0,0
02.04.2020 09:00:00 9,7 0,8 6,1 15 8 24 13 E 1014,2 57 0,0
02.04.2020 08:00:00 8,4 -0,4 5,0 13 7 24 13 ENE 1014,0 60 0,0
02.04.2020 07:00:00 6,9 0,1 4,3 10 5 21 11 ENE 1014,2 60 0,0
02.04.2020 06:00:00 6,3 -0,2 2,1 9 5 18 10 ENE 1014,4 60 0,0
02.04.2020 05:00:00 4,7 -1,1 0,6 11 6 16 8 ENE 1014,7 58 0,0
02.04.2020 04:00:00 3,8 -1,0 0,9 6 4 13 7 ENE 1015,3 59 0,0
02.04.2020 03:00:00 2,9 -1,3 0,1 6 4 13 7 NE 1015,9 60 0,0
02.04.2020 02:00:00 3,6 -1,0 0,8 7 4 16 9 ENE 1016,4 60 0,0
02.04.2020 01:00:00 3,0 -1,4 1,0 9 5 14 8 NNE 1016,9 56 0,0
02.04.2020 00:00:00 6,0 -1,6 3,8 10 6 21 11 ENE 1017,1 60 0,0
01.04.2020 23:00:00 6,4 -1,5 3,9 10 5 17 9 E 1017,0 59 0,0
01.04.2020 22:00:00 6,7 -1,5 4,7 9 5 19 11 E 1016,9 58 0,0
01.04.2020 21:00:00 7,3 -1,4 5,2 10 5 24 13 E 1016,8 58 0,0
01.04.2020 20:00:00 8,0 -1,5 6,2 12 6 31 17 ENE 1016,7 60 0,0
01.04.2020 19:00:00 9,7 -2,9 7,9 18 10 42 23 ENE 1016,9 60 0,0
01.04.2020 18:00:00 11,5 -1,7 10,5 22 12 46 25 ENE 1017,1 43 0,0
01.04.2020 17:00:00 12,3 -0,9 12,2 21 12 45 24 E 1017,1 33 0,0
01.04.2020 16:00:00 12,0 -2,3 13,8 26 14 56 30 ENE 1017,2 28 0,0
01.04.2020 15:00:00 12,2 -3,2 15,1 29 16 57 31 ENE 1017,4 23 0,0
01.04.2020 14:00:00 12,2 -2,5 14,8 31 17 65 35 ENE 1018,3 25 0,0
01.04.2020 13:00:00 11,7 -4,1 14,2 34 18 67 36 ENE 1018,8 26 0,0
01.04.2020 12:00:00 11,6 -3,8 13,4 39 21 68 37 ENE 1018,7 27 0,0
01.04.2020 11:00:00 11,6 -4,2 11,6 38 20 72 39 ENE 1019,2 20 0,0
01.04.2020 10:00:00 10,8 -5,3 9,1 41 22 72 39 ENE 1019,1 33 0,0
01.04.2020 09:00:00 9,6 -5,5 7,1 40 21 69 37 ENE 1018,5 39 0,0
01.04.2020 08:00:00 8,5 -5,7 6,7 34 18 64 34 ENE 1018,3 17 0,0
01.04.2020 07:00:00 8,4 -5,5 6,9 37 20 70 38 ENE 1018,2 60 0,0
01.04.2020 06:00:00 8,2 -3,7 7,0 35 19 71 38 ENE 1017,8 60 0,0
01.04.2020 05:00:00 8,7 -2,6 6,0 36 20 67 36 ENE 1018,1 60 0,0
01.04.2020 04:00:00 9,1 -0,3 7,8 39 21 71 38 ENE 1018,3 60 0,0
01.04.2020 03:00:00 9,8 0,7 8,6 31 17 60 33 ENE 1018,2 60 0,0
01.04.2020 02:00:00 10,3 2,1 8,7 29 16 59 32 ENE 1018,2 57 0,0
01.04.2020 01:00:00 10,4 2,5 7,0 29 16 57 31 ENE 1018,0 59 0,0
01.04.2020 00:00:00 9,7 3,0 6,5 25 13 53 29 ENE 1017,9 60 0,0
31.03.2020 23:00:00 8,1 4,1 6,6 22 12 39 21 NE 1017,6 60 0,0
31.03.2020 22:00:00 8,5 5,2 7,3 24 13 40 22 NE 1017,3 60 0,0
31.03.2020 21:00:00 9,0 5,7 7,9 23 12 44 24 ENE 1017,0 58 0,0
31.03.2020 20:00:00 10,3 7,9 9,5 26 14 47 26 ENE 1016,2 60 0,0
31.03.2020 19:00:00 11,2 8,6 10,9 25 14 51 27 ENE 1015,9 49 0,0
31.03.2020 18:00:00 12,5 9,1 13,3 29 15 54 29 ENE 1015,7 60 0,0
31.03.2020 17:00:00 13,7 9,7 15,1 24 13 48 26 ENE 1015,7 25 0,0
31.03.2020 16:00:00 16,6 10,9 18,2 21 11 40 22 ENE 1015,2 19 0,0
31.03.2020 15:00:00 17,0 11,3 17,5 24 13 41 22 NE 1015,1 17 0,0
31.03.2020 14:00:00 15,6 11,6 17,2 18 10 32 18 NE 1015,7 25 0,0
31.03.2020 13:00:00 16,2 9,8 15,9 19 11 32 18 NE 1016,0 29 0,0
31.03.2020 12:00:00 17,0 10,1 16,6 11 6 25 14 NE 1015,8 27 0,0
31.03.2020 11:00:00 16,2 10,3 15,0 8 4 18 10 ENE 1015,9 46 0,0
31.03.2020 10:00:00 13,8 10,6 11,0 3 2 8 5 NE 1015,8 19 0,0
31.03.2020 09:00:00 10,1 9,9 6,0 0 0 5 3 N 1015,7 12 0,0
31.03.2020 08:00:00 6,9 6,8 3,4 4 2 9 5 NNE 1015,3 11 0,0
31.03.2020 07:00:00 4,1 3,8 2,6 4 2 6 4 ESE 1015,0 8 0,0
31.03.2020 06:00:00 4,6 4,3 1,5 7 4 10 6 NE 1014,7 9 0,0
31.03.2020 05:00:00 3,6 3,2 1,7 0 0 7 4 N 1014,5 4,5 0,0
31.03.2020 04:00:00 4,4 4,0 2,6 4 2 6 3 ENE 1014,4 5 0,0
31.03.2020 03:00:00 5,6 5,2 3,6 5 3 8 4 ENE 1014,4 6 0,0
31.03.2020 02:00:00 6,8 6,4 4,3 5 3 8 5 NNE 1014,5 6 0,0
31.03.2020 01:00:00 6,8 5,9 4,6 3 2 7 4 NNE 1014,5 7 0,0
31.03.2020 00:00:00 8,9 8,0 6,2 7 4 15 8 NE 1014,5 8 0,0
30.03.2020 23:00:00 9,0 8,1 7,7 3 1 11 6 SW 1014,2 10 0,0
30.03.2020 22:00:00 9,4 8,3 8,1 2 1 8 4 S 1014,0 11 0,0
30.03.2020 21:00:00 10,5 8,8 8,4 5 3 13 7 S 1013,7 11 0,0
30.03.2020 20:00:00 12,9 10,1 9,8 9 5 18 10 WSW 1013,1 14 0,0
30.03.2020 19:00:00 14,6 9,4 13,0 5 3 10 5 WSW 1012,8 26 0,0
30.03.2020 18:00:00 14,7 8,9 13,6 9 5 30 16 NE 1012,6 54 0,0
30.03.2020 17:00:00 17,3 9,7 18,8 9 5 25 14 SSW 1012,3 18 0,0
30.03.2020 16:00:00 17,5 10,1 21,0 16 9 28 15 SSW 1012,3 16 0,0
30.03.2020 15:00:00 18,2 9,3 23,0 20 11 29 16 SSW 1012,4 19 0,0
30.03.2020 14:00:00 18,3 10,1 22,8 19 10 28 15 SW 1012,6 18 0,0
30.03.2020 13:00:00 18,2 10,6 19,1 14 8 22 12 SW 1012,9 18 0,0
30.03.2020 12:00:00 17,2 10,1 17,4 7 4 16 9 SW 1013,0 20 0,0
30.03.2020 11:00:00 16,3 9,7 14,6 10 5 23 13 NE 1013,1 34 0,0
30.03.2020 10:00:00 14,5 9,5 10,5 12 6 22 12 NE 1012,6 20 0,0
30.03.2020 09:00:00 10,3 9,8 4,1 4 2 9 5 NE 1012,4 42 0,0
30.03.2020 08:00:00 5,6 5,3 2,4 9 5 11 6 NE 1012,1 19 0,0
30.03.2020 07:00:00 4,4 3,8 2,8 6 4 10 6 NNE 1011,7 12 0,0
30.03.2020 06:00:00 5,3 5,2 2,4 7 4 10 5 NE 1011,7 8 0,0
30.03.2020 05:00:00 4,4 4,3 0,9 8 4 9 5 NE 1011,6 7 0,0
30.03.2020 04:00:00 2,7 2,4 1,3 3 2 5 3 SW 1011,8 10 0,0
30.03.2020 03:00:00 3,4 3,1 1,0 3 1 6 3 W 1012,2 10 0,0
30.03.2020 02:00:00 3,7 3,3 1,3 4 2 10 6 SW 1012,6 8 0,0
30.03.2020 01:00:00 3,5 2,9 1,5 3 2 5 3 WSW 1012,9 11 0,0
30.03.2020 00:00:00 4,3 3,7 2,1 2 1 5 3 W 1013,3 11 0,0
29.03.2020 23:00:00 5,8 5,1 3,0 5 3 7 4 N 1013,3 11 0,0

tt = Température de l'air
td = dewpoint
tt 5cm = Température de l'air 5cm
ff = Vitesse du vent
fx = gusts
dd = Direction du vent
ppp = reduced air pressure
vv = visibility
rr = Quantités de précipitations

stations d'obs. à proximité